Weather History for Detroit Metro, MI

Change the Weather History Date:

Thursday, December 13, 2012

  Actual Average Record
Temperature  
Mean Temperature 34 °F 31 °F  
Max Temperature 44 °F 37 °F 60 °F (1881)
Min Temperature 24 °F 25 °F 1 °F (1960)
Degree Days  
Heating Degree Days 31 34  
Month to date heating degree days 313 419  
Since 1 July heating degree days 1539 1634  
Cooling Degree Days 0 0  
Month to date cooling degree days 0 0  
Year to date cooling degree days 1156 803  
Moisture  
Dew Point 23 °F    
Average Humidity 64    
Maximum Humidity 88    
Minimum Humidity 40    
Precipitation  
Precipitation 0.00 in 0.08 in 1.15 in (1881)
Month to date precipitation 0.69 1.07  
Year to date precipitation 25.16 32.08  
Snow  
Snow 0.00 in 0.30 in 5.80 in (1921)
Month to date snowfall 0.0 3.2  
Since 1 July snowfall 0.4 4.8  
Snow Depth 0.00 in    
Sea Level Pressure  
Sea Level Pressure 30.33 in    
Wind  
Wind Speed 8 mph (South)    
Max Wind Speed 18 mph    
Max Gust Speed 22 mph    
Visibility 10 miles    
Events      
T = Trace of Precipitation, MM = Missing Value Source: NWS Daily Summary

Daily Weather History Graph

Daily Weather History Graph

Search for Another Location

Airport:

Trip Planner

Search our weather history database for the weather conditions in past years. The results will help you decide how hot, cold, wet, or windy it might be!

Date:

Astronomy

Dec. 13, 2012 Rise Set
Actual Time 7:53 AM EST 5:01 PM EST
Civil Twilight 7:22 AM EST 5:33 PM EST
Nautical Twilight 6:46 AM EST 6:08 PM EST
Astronomical Twilight 6:12 AM EST 6:42 PM EST
Moon 8:01 AM EST (12/13) 5:43 PM EST (12/13)
Length of Visible Light 10h 11m
Length of Day
9h 07m
New Moon, 0% of the Moon is Illuminated
Dec 13
New Moon
Dec 20
First Quarter
Dec 28
Full
Jan 4
Last Quarter
Jan 11
New

Hourly Weather History & Observations

Time (EST) Temp. Windchill Dew Point Humidity Pressure Visibility Wind Dir Wind Speed Gust Speed Precip Events Conditions
12:53 AM 28.9 °F 23.9 °F 21.9 °F 75% 30.39 in 10.0 mi SSE 4.6 mph - N/A   Clear
1:53 AM 26.1 °F 20.5 °F 21.9 °F 84% 30.38 in 10.0 mi SSE 4.6 mph - N/A   Clear
2:53 AM 27.0 °F 23.0 °F 21.0 °F 78% 30.40 in 10.0 mi South 3.5 mph - N/A   Clear
3:53 AM 25.0 °F 20.7 °F 19.0 °F 78% 30.40 in 10.0 mi South 3.5 mph - N/A   Clear
4:53 AM 25.0 °F 18.1 °F 21.0 °F 85% 30.39 in 10.0 mi SSE 5.8 mph - N/A   Clear
5:53 AM 26.1 °F 20.5 °F 21.0 °F 81% 30.40 in 10.0 mi South 4.6 mph - N/A   Partly Cloudy
6:53 AM 25.0 °F 18.1 °F 19.9 °F 81% 30.41 in 10.0 mi South 5.8 mph - N/A   Partly Cloudy
7:53 AM 26.1 °F 19.4 °F 21.0 °F 81% 30.40 in 7.0 mi South 5.8 mph - N/A   Partly Cloudy
8:53 AM 28.9 °F 21.9 °F 23.0 °F 78% 30.40 in 7.0 mi South 6.9 mph - N/A   Partly Cloudy
9:53 AM 33.1 °F 24.9 °F 26.1 °F 75% 30.40 in 10.0 mi South 10.4 mph - N/A   Scattered Clouds
10:53 AM 37.9 °F 30.9 °F 26.1 °F 62% 30.39 in 10.0 mi South 10.4 mph - N/A   Mostly Cloudy
11:53 AM 41.0 °F 34.3 °F 26.1 °F 55% 30.37 in 10.0 mi South 11.5 mph - N/A   Mostly Cloudy
12:53 PM 43.0 °F 36.8 °F 25.0 °F 49% 30.33 in 10.0 mi South 11.5 mph - N/A   Partly Cloudy
1:53 PM 44.1 °F 37.4 °F 24.1 °F 45% 30.32 in 10.0 mi South 13.8 mph - N/A   Partly Cloudy
2:53 PM 44.1 °F 37.1 °F 21.9 °F 42% 30.28 in 10.0 mi South 15.0 mph - N/A   Scattered Clouds
3:53 PM 44.1 °F 37.7 °F 21.0 °F 40% 30.27 in 10.0 mi South 12.7 mph - N/A   Mostly Cloudy
4:53 PM 39.9 °F 33.9 °F 23.0 °F 51% 30.25 in 10.0 mi SSE 9.2 mph - N/A   Mostly Cloudy
6:53 PM 37.4 °F 30.8 °F 24.8 °F 60% 30.22 in 10.0 mi South 9.2 mph - N/A   Mostly Cloudy
7:53 PM 34.0 °F 27.2 °F 26.1 °F 73% 30.25 in 10.0 mi South 8.1 mph - N/A   Scattered Clouds
8:53 PM 35.1 °F 29.3 °F 27.0 °F 72% 30.23 in 10.0 mi South 6.9 mph - N/A   Scattered Clouds
9:53 PM 33.1 °F 26.9 °F 25.0 °F 72% 30.22 in 10.0 mi South 6.9 mph - N/A   Partly Cloudy
10:53 PM 35.1 °F 27.4 °F 25.0 °F 67% 30.21 in 10.0 mi South 10.4 mph - N/A   Partly Cloudy
11:53 PM 30.9 °F 23.5 °F 24.1 °F 76% 30.21 in 10.0 mi South 8.1 mph - N/A   Partly Cloudy